Hourly Weather Buenos Aires

Today, 25 February, Thursday

Time Temperature Precipitation Wind Pressure Humidity
00:00 +27°C° 0 mm 3 mps 759 mmHg 35%
01:00 +26°C° 0 mm 3 mps 759 mmHg 36%
02:00 +26°C° 0 mm 3 mps 759 mmHg 37%
03:00 +25°C° 0 mm 3 mps 759 mmHg 38%
04:00 +25°C° 0 mm 3 mps 759 mmHg 39%
05:00 +24°C° 0 mm 3 mps 759 mmHg 39%
06:00 +25°C° 0 mm 3 mps 759 mmHg 39%
07:00 +26°C° 0 mm 3 mps 760 mmHg 38%
08:00 +27°C° 0 mm 4 mps 760 mmHg 37%
09:00 +29°C° 0 mm 3 mps 760 mmHg 31%
10:00 +33°C° 0 mm 3 mps 760 mmHg 25%
11:00 +35°C° 0 mm 2 mps 760 mmHg 20%
12:00 +37°C° 0 mm 2 mps 759 mmHg 18%
13:00 +38°C° 0 mm 2 mps 759 mmHg 16%
14:00 +39°C° 0 mm 2 mps 758 mmHg 14%
15:00 +38°C° 0 mm 2 mps 758 mmHg 14%
16:00 +37°C° 0 mm 3 mps 757 mmHg 14%
17:00 +36°C° 0 mm 3 mps 757 mmHg 15%
18:00 +35°C° 0 mm 3 mps 757 mmHg 18%
19:00 +33°C° 0 mm 4 mps 758 mmHg 21%
20:00 +32°C° 0 mm 5 mps 758 mmHg 24%
21:00 +32°C° 0 mm 5 mps 758 mmHg 27%
22:00 +30°C° 0 mm 5 mps 758 mmHg 29%
23:00 +30°C° 0 mm 5 mps 759 mmHg 32%

Tomorrow, 26 February, Friday

Time Temperature Precipitation Wind Pressure Humidity
00:00 +29°C° 0 mm 6 mps 758 mmHg 33%
01:00 +28°C° 0 mm 6 mps 758 mmHg 34%
02:00 +28°C° 0 mm 6 mps 758 mmHg 35%
03:00 +27°C° 0 mm 6 mps 758 mmHg 37%
04:00 +26°C° 0 mm 6 mps 759 mmHg 39%
05:00 +26°C° 0 mm 6 mps 759 mmHg 41%
06:00 +27°C° 0 mm 5 mps 759 mmHg 40%
07:00 +27°C° 0 mm 5 mps 759 mmHg 39%
08:00 +28°C° 0 mm 4 mps 760 mmHg 38%
09:00 +30°C° 0 mm 4 mps 760 mmHg 32%
10:00 +33°C° 0 mm 3 mps 760 mmHg 27%
11:00 +34°C° 0 mm 3 mps 760 mmHg 22%
12:00 +35°C° 0 mm 3 mps 759 mmHg 20%
13:00 +36°C° 0 mm 4 mps 759 mmHg 19%
14:00 +37°C° 0 mm 5 mps 758 mmHg 18%
15:00 +36°C° 0 mm 5 mps 758 mmHg 20%
16:00 +35°C° 0 mm 6 mps 758 mmHg 22%
17:00 +35°C° 0 mm 7 mps 758 mmHg 24%
18:00 +33°C° 0 mm 7 mps 758 mmHg 29%
19:00 +32°C° 0 mm 6 mps 759 mmHg 33%
20:00 +30°C° 0 mm 6 mps 759 mmHg 38%
21:00 +29°C° 0 mm 6 mps 760 mmHg 41%
22:00 +29°C° 0 mm 7 mps 760 mmHg 44%
23:00 +28°C° 0 mm 7 mps 761 mmHg 46%

Day after tomorrow, 27 February, Saturday

Time Temperature Precipitation Wind Pressure Humidity
00:00 +27°C° 0 mm 7 mps 761 mmHg 50%
01:00 +27°C° 0 mm 7 mps 761 mmHg 54%
02:00 +26°C° 0 mm 6 mps 761 mmHg 57%
03:00 +24°C° 0 mm 6 mps 761 mmHg 61%
04:00 +24°C° 0 mm 6 mps 762 mmHg 65%
05:00 +23°C° 0 mm 5 mps 762 mmHg 69%
06:00 +25°C° 0 mm 5 mps 762 mmHg 67%
07:00 +25°C° 0 mm 5 mps 762 mmHg 65%
08:00 +25°C° 0 mm 5 mps 763 mmHg 62%
09:00 +27°C° 0 mm 5 mps 763 mmHg 54%
10:00 +29°C° 0 mm 4 mps 763 mmHg 46%
11:00 +30°C° 0 mm 4 mps 763 mmHg 38%
12:00 +32°C° 0 mm 5 mps 762 mmHg 35%
13:00 +33°C° 0 mm 6 mps 762 mmHg 32%
14:00 +34°C° 0 mm 7 mps 761 mmHg 29%
15:00 +34°C° 0 mm 8 mps 761 mmHg 32%
16:00 +33°C° 0 mm 8 mps 761 mmHg 35%
17:00 +33°C° 0 mm 9 mps 760 mmHg 38%
18:00 +32°C° 0 mm 9 mps 761 mmHg 41%
19:00 +31°C° 0 mm 8 mps 761 mmHg 45%
20:00 +31°C° 0 mm 8 mps 762 mmHg 48%
21:00 +29°C° 0 mm 8 mps 762 mmHg 52%
22:00 +28°C° 0 mm 9 mps 762 mmHg 56%
23:00 +27°C° 0 mm 9 mps 763 mmHg 59%

28 February, Sunday

Time Temperature Precipitation Wind Pressure Humidity
00:00 +27°C° 0 mm 8 mps 763 mmHg 63%
01:00 +26°C° 0 mm 8 mps 762 mmHg 67%
02:00 +24°C° 0 mm 7 mps 762 mmHg 70%
03:00 +24°C° 0 mm 7 mps 763 mmHg 70%
04:00 +23°C° 0 mm 7 mps 763 mmHg 69%
05:00 +23°C° 0 mm 7 mps 763 mmHg 69%
06:00 +23°C° 0 mm 6 mps 763 mmHg 67%
07:00 +24°C° 0 mm 6 mps 763 mmHg 64%
08:00 +24°C° 0 mm 6 mps 763 mmHg 62%
09:00 +27°C° 0 mm 5 mps 763 mmHg 57%
10:00 +28°C° 0 mm 5 mps 762 mmHg 51%
11:00 +30°C° 0 mm 4 mps 762 mmHg 46%
12:00 +32°C° 0 mm 5 mps 761 mmHg 43%
13:00 +33°C° 0 mm 5 mps 760 mmHg 40%
14:00 +33°C° 0 mm 6 mps 760 mmHg 37%
15:00 +33°C° 0 mm 7 mps 759 mmHg 38%
16:00 +33°C° 0 mm 8 mps 759 mmHg 38%
17:00 +33°C° 0 mm 8 mps 758 mmHg 39%
18:00 +32°C° 0 mm 8 mps 758 mmHg 41%
19:00 +31°C° 0 mm 8 mps 759 mmHg 44%
20:00 +29°C° 0 mm 7 mps 759 mmHg 47%
21:00 +29°C° 0 mm 7 mps 759 mmHg 51%
22:00 +28°C° 0 mm 8 mps 759 mmHg 56%
23:00 +27°C° 0 mm 8 mps 759 mmHg 60%

1 March, Monday

Time Temperature Precipitation Wind Pressure Humidity
00:00 +26°C° 0 mm 7 mps 759 mmHg 63%
01:00 +26°C° 0 mm 7 mps 758 mmHg 66%
02:00 +24°C° 0 mm 6 mps 758 mmHg 69%
03:00 +24°C° 0 mm 6 mps 758 mmHg 71%
04:00 +23°C° 0 mm 5 mps 758 mmHg 73%
05:00 +23°C° 0 mm 5 mps 758 mmHg 75%
06:00 +25°C° 0 mm 5 mps 758 mmHg 73%
07:00 +25°C° 0 mm 5 mps 759 mmHg 71%
08:00 +26°C° 0 mm 5 mps 759 mmHg 68%
09:00 +27°C° 0 mm 4 mps 759 mmHg 62%
10:00 +29°C° 0 mm 3 mps 758 mmHg 56%
11:00 +31°C° 0 mm 3 mps 758 mmHg 49%
12:00 +33°C° 0 mm 3 mps 757 mmHg 44%
13:00 +34°C° 0 mm 4 mps 757 mmHg 39%
14:00 +35°C° 0 mm 4 mps 756 mmHg 33%
15:00 +35°C° 0 mm 5 mps 756 mmHg 33%
16:00 +34°C° 0 mm 5 mps 755 mmHg 33%
17:00 +34°C° 0 mm 5 mps 755 mmHg 32%
18:00 +33°C° 0 mm 5 mps 756 mmHg 39%
19:00 +30°C° 0 mm 6 mps 756 mmHg 47%
20:00 +29°C° 0 mm 6 mps 756 mmHg 54%
21:00 +29°C° 0 mm 6 mps 756 mmHg 56%
22:00 +28°C° 0 mm 6 mps 757 mmHg 58%
23:00 +28°C° 0 mm 6 mps 757 mmHg 60%

2 March, Tuesday

Time Temperature Precipitation Wind Pressure Humidity
00:00 +28°C° 0 mm 6 mps 757 mmHg 62%
01:00 +27°C° 0 mm 6 mps 757 mmHg 65%
02:00 +27°C° 0 mm 6 mps 757 mmHg 68%
03:00 +26°C° 0 mm 5 mps 757 mmHg 70%
04:00 +26°C° 0 mm 5 mps 757 mmHg 72%
05:00 +26°C° 0 mm 4 mps 757 mmHg 73%
06:00 +26°C° 0 mm 4 mps 758 mmHg 71%
07:00 +27°C° 0 mm 4 mps 758 mmHg 69%
08:00 +27°C° 0 mm 4 mps 758 mmHg 66%
09:00 +29°C° 0 mm 3 mps 758 mmHg 59%
10:00 +31°C° 0 mm 3 mps 758 mmHg 52%
11:00 +34°C° 0 mm 2 mps 758 mmHg 45%
12:00 +35°C° 0 mm 3 mps 757 mmHg 39%
13:00 +36°C° 0 mm 3 mps 757 mmHg 34%
14:00 +37°C° 0 mm 4 mps 756 mmHg 28%
15:00 +37°C° 0 mm 4 mps 756 mmHg 28%
16:00 +36°C° 0 mm 5 mps 756 mmHg 28%
17:00 +36°C° 0 mm 6 mps 756 mmHg 28%
18:00 +34°C° 0 mm 6 mps 756 mmHg 36%
19:00 +32°C° 0 mm 7 mps 757 mmHg 44%
20:00 +29°C° 0 mm 7 mps 757 mmHg 52%
21:00 +29°C° 0 mm 7 mps 758 mmHg 52%
22:00 +29°C° 0 mm 6 mps 758 mmHg 53%
23:00 +29°C° 0 mm 6 mps 758 mmHg 53%
Show more

We Need Your Consent

Meteoprog and our Service Providers may store and access personal data such as cookies, device identifiers or other similar technologies on your device and process such data to personalise content and ads, as well as provide social media features and to analyse the traffic.

  • Store and/or access information on your device

    Cookies, device identifiers or other information can be stored or accessed on your device for the purposes indicated above.

  • Personalised ads and content, ad and content measurement, audience insights, and products development

    Ads and content can be personalised based on a profile. More data can be added to better personalise ads and content. Ad and content performance can be measured. Insights about the audience who saw the ads and content can be derived. Such data can be used to develop or improve user’s experience, systems and software.

By clicking ‘I Agree’ you will allow the use of indicated cookies, device identifiers, web beacons or other similar technologies. Your settings can be changed in the browser on your device.

For certain purposes, legitimate interests may be relied on, rather than consent. You can read more about this in our Privacy and Cookie Policy.